Погода в Ишиме

Погода в Ишиме : погода сейчас, прогноз погоды и архив. Всё, что Вы хотите узнать о погоде в Ишиме!

Хотите узнать прогноз погоды в Ишиме? Тогда Вам сюда: Погода в Ишиме

Поиск расширенной информации на нашем сайте:

Другие новости

Новости СМИ2

Главная страница сайта

Новости сайта

03.07.2017

Напоминаем, что на нашем специализированном сайте Метеоцентр.Азия вы можете получить высокодетализированные автоматические прогнозы погоды по пунктам России, СНГ и мира в авиационном формате (включающие направление и скорость ветра, видимость, явления погоды, количество и форму облачности, нижнюю и верхнюю границу облачности).


Погода в Ишиме - сегодня

Время (UTC), дата Ветер
(°,м/с) 
Видим.   Явления Облачность Т
(°С)
Тd
(°С)
f(%) Тe
(°С)
Pmin
(гПа)
dP
(гПа)
Po
(мм)
O2
(г/м3)
Тmin Tmax R s Состояние
почвы
15 24.05.18 250 (З) 2{22}  20000 м  {гроза}  8/8 600 м кучево-дожд. 
[Cb cap]
+13.9 +11.8 87 +18  1006.5  0.8  748  284    +26.8     
18 24.05.18 290 (З) 10 км  {гроза, ливн. осадки}  ясно 
+13 +11 88 +16  1007.8  1.2  749  286           
21 24.05.18 330 (СЗ) 10 км    3/0 средняя 
[Ac trans]
+11.6 +10.3 92 +14  1008.8  749  288           
00 25.05.18 010 (С) 20000 м    9/9 600 м кучево-дожд. 
[Cb cap]
+10.4 +8.7 89 +11  1010.4  1.5  750  290           
03 25.05.18 020 (С) 20000 м    10/10 1000 м 
[Sc]
+9 +3.2 67 +8  1012.5  2.1  752  293  +8.9         
06 25.05.18 060 (СВ) 20000 м    10/10 1000 м 
[Sc]
+9.4 +3.3 66 +9  1012.7  0.1  752  292           
09 25.05.18 070 (В) 20000 м    9/4 1000 м средняя 
[Sc|Ac trans]
+10.6 +1.8 54 +10  1012.8  0.2  752  291           
12 25.05.18 080 (В) 20000 м    10/0 
[]
+10.3 +0.7 51 +10  1012.9  752  292           
18 25.05.18 тихо ()   10 км    10/0 средняя 
[Ac und]
+8.1 +2.8 69 +8  1011.3  -0.5  751  293           
21 25.05.18 360 (С) 10 км    10/0 средняя 
[Ac und]
+7.3 +2.4 71 +7  1011.1  -0.2  751  294           
00 26.05.18 050 (СВ) 20000 м    10/0 средняя 
[As op]
+7.6 +1.3 64 +8  1010.4  -0.7  750  294           
03 26.05.18 060 (СВ) 6-10{11}  4000 м  слаб. дождь  10/0 средняя 
[As op]
+6 +2.8 80 +4  1010.5  0.1  750  295  +6       
15 26.05.18 060 (СВ) 20000 м    9/6 600 м кучево-дожд., средняя 
[Cb cap|Ac trans]
+6.6 +2.7 76 +8  1014.2  0.3  753  296    +6.9     
18 26.05.18 360 (С) 5{10}  10 км    8/4 600 м кучево-дожд., средняя 
[Cb cap|Ac trans]
+5.5 +1.1 73 +3  1015  0.7  754  297           
21 26.05.18 350 (С) 10 км    9/9 600 м кучево-дожд. 
[Cb cap]
+4.5 -0.7 69 +3  1015.4  0.7  754  299           
00 27.05.18 340 (С) 20000 м    3/0 средняя 
[Ac trans]
+2.9 -1.4 73 +2  1015.7  0.3  754  301           
03 27.05.18 020 (С) 20000 м    ясно 
+6 -3.8 49 +4  1016.2  0.6  755  298  +2.9        влажная 
06 27.05.18 350 (С) 20000 м    ясно 
+8.3 -4.5 40 +7  1014.7  -1.4  754  295           
09 27.05.18 330 (СЗ) 20000 м    ясно 
+11.4 -5.6 30 +11  1012.8  -1.8  752  292           
12 27.05.18 260 (З) 20000 м    ясно 
+13.5 -6.2 25 +14  1011  -1.8  751  289           
15 27.05.18 230 (ЮЗ) 20000 м    1/1 600 м кучево-дожд. 
[Cb cap]
+9.9 -1.8 44 +9  1009.5  -1.5  750  292    +13.9       
18 27.05.18 190 (Ю) 10 км    3/3 1000 м 
[Sc]
+10.3 -0.4 47 +10  1007.5  -2  748  291           
21 27.05.18 190 (Ю) 10 км    6/6 600 м кучево-дожд. 
[Cb cap]
+9.1 +1 57 +8  1004.7  -2.8  746  291           
00 28.05.18 190 (Ю) 20000 м    6/6 600 м кучево-дожд. 
[Cb cap]
+9.4 +3.2 65 +8  1001.9  -2.7  744  289           
03 28.05.18 210 (ЮЗ) 20000 м  {ливн. осадки}  9/9 600 м кучево-дожд. 
[Cb cap]
+13.1 +5.6 60 +13  1000.6  -1.1  743  285  +8.3    0.0     
Время (UTC), дата Ветер
(°,м/с) 
Видим.   Явления Облачность Т
(°С)
Тd
(°С)
f(%) Тe
(°С)
Pmin
(гПа)
dP
(гПа)
Po
(мм)
O2
(г/м3)
Тmin Tmax R s Состояние
почвы

Для получения пояснительной информации подведите курсор к названию столбца.

ПОГОДА в Ишиме - архив

Всё, что Вы хотите узнать о погоде в Ишиме - удобно и подробно!

Выберите нужную дату (начиная с 1 января 2015* года) и нажмите кнопку "Найти".
Будут отображены архивные сводки погоды по пункту Ишим, начиная с указанной даты.


Отображать данные в формате CSV (для использования в таблицах Excel)


Внимание! Наш архив погоды предназначен исключительно для личного некоммерческого использования в познавательных целях. Если Вам необходимы официальные справки о состоянии погоды (для производственных, юридических, коммерческих и т.п. целей), обращайтесь в органы Росгидромета.

*Примечание: данная дата относится к архиву по метеостанциям СССР (Россия, СНГ, Балтия).
Архив по метеостанциям Зарубежной Европы и Азии (кроме Китая) хранится 10 дней, по другим регионам земного шара (Китай, Африка, Америка, Австралия, Океания) - 1 день.

Ишим - район местоположения метеостанции


Название, широта, долгота, высота метеостанции:
Ишим 56.1°ш. 69.4°д. 82 м над ур. моря [Российская Федерация]

Дополнительная информация

В oтличие oт бoльшинства пoгoдных сайтoв мы публикуем пoдрoбную метеoинфoрмацию в детальнoм прoфессиoнальнoм фoрмате.

Характеристики температуры и влажнoсти вoздуха измеряются на высoте 2 м в тени вдали oт зданий и деревьев.
Скoрoсть ветра измеряется на высoте 10 м (на урoвне рoста челoвека скoрoсть ветра ниже в 1.5-2 раза). Если метеoстанция нахoдится в гoрoде или в лесу, тo скoрoсть ветра занижена на 2-4 м/с пo сравнению с oткрытым местoм. Скoрoсть ветра над акватoриями крупных рек и oзёр, а также на вершинах хoлмoв на 2-5 м/с выше, чем в oбычных услoвиях.
Атмoсфернoе давление в разных тoчках местнoсти мoжет значительнo oтличаться oт давления на метеoстанции, в зависимoсти oт услoвий рельефа (при пoдъёме на 10 м давление пoнижается примернo на 1 мм рт.ст.).